EW5526 Weather Reports


Display with metric or nautical units.
time (UTC)temp
F
wind
direction
speed
MPH
gust
MPH
rain 1hr
in
rain 24hr
in
rain mn
in
humidity
%
barometer
mb
20260901190043 77 300 4.0 11.0 0.00 0.00 0.00 81 1019.5
20260901183043 78 306 8.0 9.0 0.00 0.00 0.00 76 1019.1
20260901180044 78 305 3.0 12.0 0.00 0.00 0.00 76 1018.7
20260901173042 79 304 16.0 16.0 0.00 0.00 0.00 73 1018.3
20260901170042 81 293 8.0 12.0 0.00 0.00 0.00 69 1018.4
20260901163041 83 305 10.0 15.0 0.00 0.00 0.00 63 1018.6
20260901160041 85 325 4.0 12.0 0.00 0.00 0.00 58 1018.7
20260901153041 87 281 10.0 13.0 0.00 0.00 0.00 51 1018.7
20260901150041 89 307 8.0 14.0 0.00 0.00 0.00 45 1018.7
20260901143040 90 279 8.0 15.0 0.00 0.00 0.00 42 1018.9
20260901140040 91 5 5.0 9.0 0.00 0.00 0.00 42 1018.8
20260901133040 91 340 3.0 10.0 0.00 0.00 0.00 42 1018.8
20260901130040 92 342 5.0 9.0 0.00 0.00 0.00 43 1019.0
20260901123039 91 346 8.0 9.0 0.00 0.00 0.00 44 1019.3
20260901120039 91 316 3.0 5.0 0.00 0.00 0.00 47 1019.5
20260901113038 91 99 3.0 3.0 0.00 0.00 0.00 48 1019.4
20260901110038 90 26 3.0 6.0 0.00 0.00 0.00 51 1019.6
20260901100038 89 10 3.0 3.0 0.00 0.00 0.00 47 1019.5
20260901093038 87 40 6.0 7.0 0.00 0.00 0.00 51 1019.2
20260901090037 85 17 8.0 12.0 0.00 0.00 0.00 54 1019.0
20260901083037 83 17 12.0 12.0 0.00 0.00 0.00 58 1018.6
20260901080037 82 293 8.0 15.0 0.00 0.00 0.00 61 1018.2
20260901073036 80 319 12.0 14.0 0.00 0.00 0.00 67 1017.5
20260901070036 78 267 7.0 10.0 0.00 0.00 0.00 75 1017.7
20260901063036 77 13 11.0 14.0 0.00 0.00 0.00 79 1017.9
20260901060035 75 331 6.0 12.0 0.00 0.00 0.00 83 1017.6
20260901050035 74 16 5.0 13.0 0.00 0.00 0.00 87 1017.2
20260901043034 74 346 6.0 13.0 0.00 0.00 0.00 87 1017.1
20260901033034 74 5 12.0 14.0 0.00 0.00 0.00 85 1017.3
20260901030033 74 325 8.0 11.0 0.00 0.00 0.00 86 1017.4
20260901023033 74 333 4.0 12.0 0.00 0.00 0.00 86 1017.6
20260901020033 74 343 9.0 13.0 0.00 0.00 0.00 86 1017.5
20260901013033 75 9 5.0 8.0 0.00 0.00 0.00 85 1018.3
20260901010032 75 321 3.0 10.0 0.00 0.00 0.00 84 1018.7
20260901003032 75 284 10.0 11.0 0.00 0.00 0.00 84 1019.1
20260901000031 75 319 10.0 13.0 0.00 0.00 0.00 82 1019.4
20260831233031 76 323 3.0 7.0 0.00 0.00 0.00 79 1019.7
20260831230031 75 299 8.0 11.0 0.00 0.00 0.00 75 1019.1
20260831223031 75 340 3.0 9.0 0.00 0.00 0.00 83 1019.5
20260831220030 75 313 1.0 4.0 0.00 0.00 0.00 84 1019.7
20260831213030 76 322 3.0 5.0 0.00 0.00 0.00 82 1019.4
20260831210030 76 323 5.0 10.0 0.00 0.00 0.00 80 1018.7
20260831203029 77 319 4.0 10.0 0.00 0.00 0.00 80 1018.2
20260831200030 77 333 3.0 13.0 0.00 0.00 0.00 77 1018.1